This is the latest recevied weather packets stored in our database for station/object KA3WVU. If no packets are shown the sender has not sent any weather packets the latest 10 day(s).
| Time | Temp. | Humidity | Pressure | Rain* | Wind** | Luminosity | Snow |
|---|---|---|---|---|---|---|---|
| 1777567780 | 5.56° C | 99% | 1009.8 hPa | 0 mm | - | 96 W/m² | - |
| 1777567477 | 5.56° C | 99% | 1009.8 hPa | 0 mm | - | 131 W/m² | - |
| 1777567176 | 5.56° C | 98% | 1009.8 hPa | 0 mm | - | 99 W/m² | - |
| 1777566873 | 6.67° C | 97% | 1009.6 hPa | 0 mm | - | 57 W/m² | - |
| 1777566570 | 6.11° C | 94% | 1009.7 hPa | 0 mm | - | 60 W/m² | - |
| 1777566267 | 6.67° C | 93% | 1009.4 hPa | 0 mm | - | 98 W/m² | - |
| 1777565965 | 6.67° C | 93% | 1009.6 hPa | 0 mm | - | 47 W/m² | - |
| 1777565660 | 6.67° C | 91% | 1009.4 hPa | 0 mm | - | 59 W/m² | - |
| 1777565357 | 7.22° C | 89% | 1009.5 hPa | 0 mm | - | 74 W/m² | - |
| 1777565053 | 6.67° C | 90% | 1009.6 hPa | 0 mm | - | 132 W/m² | - |
| 1777564749 | 6.67° C | 90% | 1009.7 hPa | 0 mm | - | 147 W/m² | - |
| 1777564444 | 6.67° C | 90% | 1009.5 hPa | 0 mm | - | 96 W/m² | - |
| 1777564140 | 6.67° C | 93% | 1009.5 hPa | 0 mm | - | 92 W/m² | - |
| 1777563836 | 6.67° C | 91% | 1009.6 hPa | 0 mm | - | 66 W/m² | - |
| 1777563533 | 6.67° C | 91% | 1009.4 hPa | 0 mm | - | 45 W/m² | - |
| 1777563232 | 6.67° C | 89% | 1009.6 hPa | 0 mm | - | 57 W/m² | - |
| 1777562929 | 7.22° C | 92% | 1009.4 hPa | 0 mm | - | 138 W/m² | - |
| 1777562624 | 7.22° C | 91% | 1009.7 hPa | 0 mm | - | 109 W/m² | - |
| 1777562324 | 6.67° C | 90% | 1009.5 hPa | 0 mm | - | 154 W/m² | - |
| 1777562021 | 6.11° C | 96% | 1009.4 hPa | 0 mm | - | 126 W/m² | - |
| 1777561718 | 6.11° C | 99% | 1009.3 hPa | 0 mm | - | 214 W/m² | - |
| 1777561413 | 6.11° C | 99% | 1009.3 hPa | 0 mm | - | 205 W/m² | - |
| 1777561108 | 5.56° C | 99% | 1009.4 hPa | 0 mm | - | 201 W/m² | - |
| 1777560804 | 5.56° C | 99% | 1009.4 hPa | 0 mm | - | 149 W/m² | - |
| 1777560502 | 5.56° C | 99% | 1009.3 hPa | 0 mm | - | 165 W/m² | - |
* Rain latest hour (hover to see other rain measurements)
** Current wind speed in m/s (hover to see current wind gust speed)